Weather History for Phnom Penh, Cambodia

Change the Weather History Date:

Sunday, September 30, 2012

  Actual Average Record
Temperature  
Mean Temperature 82 °F -  
Max Temperature 87 °F 84 °F 93 °F (2014)
Min Temperature 77 °F 76 °F 75 °F (2004)
Cooling Degree Days 17    
Growing Degree Days 32 (Base 50)    
Moisture  
Dew Point 74 °F    
Average Humidity 74    
Maximum Humidity 93    
Minimum Humidity 62    
Precipitation  
Precipitation 0.00 in - - ()
Sea Level Pressure  
Sea Level Pressure 29.84 in    
Wind  
Wind Speed 12 mph ()    
Max Wind Speed 134 mph    
Max Gust Speed -    
Visibility 5.7 miles    
Events Rain    
Averages and records for this station are not official NWS values.
T = Trace of Precipitation, MM = Missing Value Source: Averaged Metar Reports

Daily Weather History Graph

Daily Weather History Graph

Search for Another Location

Airport:

Trip Planner

Search our weather history database for the weather conditions in past years. The results will help you decide how hot, cold, wet, or windy it might be!

Date:

Astronomy

Sep. 30, 2012 Rise Set
Actual Time 5:49 AM ICT 5:51 PM ICT
Civil Twilight 5:28 AM ICT 6:12 PM ICT
Nautical Twilight 5:04 AM ICT 6:37 PM ICT
Astronomical Twilight 4:39 AM ICT 7:01 PM ICT
Moon 5:51 PM ICT (9/30) 5:39 AM ICT (9/30)
Length of Visible Light 12h 44m
Length of Day
12h 01m
Full, 100% of the Moon is Illuminated
Sep 30
Full
Oct 8
Last Quarter
Oct 15
New
Oct 22
First Quarter
Oct 30
Full

Hourly Weather History & Observations

Time (ICT) Temp. Heat Index Dew Point Humidity Pressure Visibility Wind Dir Wind Speed Gust Speed Precip Events Conditions
6:30 AM 78.8 °F - 75.2 °F 89% 29.86 in 6.2 mi WSW 4.6 mph - N/A   Scattered Clouds
7:00 AM 78 °F - 76 °F 93% 29.74 in 0 mi WSW 134.2 mph - -   Partly Cloudy
7:00 AM 80.6 °F 86.2 °F 75.2 °F 84% 29.86 in 6.2 mi West 4.6 mph - N/A   Partly Cloudy
7:30 AM 80.6 °F 86.2 °F 75.2 °F 84% 29.86 in 6.2 mi WNW 3.5 mph - N/A   Partly Cloudy
8:00 AM 80.6 °F 86.2 °F 75.2 °F 84% 29.86 in 6.2 mi WNW 3.5 mph - N/A   Scattered Clouds
8:30 AM 82.4 °F 88.2 °F 73.4 °F 74% 29.89 in 6.2 mi North 4.6 mph - N/A   Scattered Clouds
9:00 AM 82.4 °F 88.2 °F 73.4 °F 74% 29.89 in 6.2 mi Variable 4.6 mph - N/A   Scattered Clouds
9:30 AM 84.2 °F 90.9 °F 73.4 °F 70% 29.89 in 6.2 mi Variable 3.5 mph - N/A   Scattered Clouds
10:00 AM 84.2 °F 90.9 °F 73.4 °F 70% 29.89 in 6.2 mi North 6.9 mph - N/A   Scattered Clouds
10:30 AM 86.0 °F 91.8 °F 71.6 °F 62% 29.89 in 6.2 mi North 5.8 mph - N/A   Mostly Cloudy
11:00 AM 86.0 °F 93.4 °F 73.4 °F 66% 29.89 in 6.2 mi North 5.8 mph - N/A   Mostly Cloudy
11:30 AM 86.0 °F 95.1 °F 75.2 °F 70% 29.89 in 6.2 mi NNW 3.5 mph - N/A   Mostly Cloudy
12:00 PM 87.8 °F 95.6 °F 73.4 °F 62% 29.86 in 6.2 mi WNW 8.1 mph - N/A   Mostly Cloudy
12:30 PM 87.8 °F 95.6 °F 73.4 °F 62% 29.83 in 6.2 mi NW 8.1 mph - N/A   Mostly Cloudy
1:00 PM 87.8 °F 95.6 °F 73.4 °F 62% 29.83 in 6.2 mi NW 8.1 mph - N/A   Mostly Cloudy
1:30 PM 86.0 °F 95.1 °F 75.2 °F 70% 29.83 in 4.3 mi SSW 8.1 mph - N/A Rain Light Rain
2:00 PM 82.4 °F 89.5 °F 75.2 °F 79% 29.80 in 4.3 mi SW 6.9 mph - N/A Rain Light Rain
2:30 PM 82.4 °F 89.5 °F 75.2 °F 79% 29.80 in 4.3 mi West 2.3 mph - N/A Rain Light Rain
3:00 PM 82.4 °F 89.5 °F 75.2 °F 79% 29.77 in 5.6 mi Variable 2.3 mph - N/A   Mostly Cloudy
3:30 PM 84.2 °F 92.3 °F 75.2 °F 74% 29.77 in 6.2 mi NE 4.6 mph - N/A   Mostly Cloudy
4:00 PM 86.0 °F 95.1 °F 75.2 °F 70% 29.77 in 6.2 mi NE 3.5 mph - N/A   Mostly Cloudy
4:30 PM 86.0 °F 93.4 °F 73.4 °F 66% 29.77 in 6.2 mi NNE 3.5 mph - N/A   Mostly Cloudy
5:00 PM 84.2 °F 90.9 °F 73.4 °F 70% 29.80 in 6.2 mi ENE 5.8 mph - N/A   Mostly Cloudy
5:30 PM 84.2 °F 90.9 °F 73.4 °F 70% 29.80 in 6.2 mi NE 4.6 mph - N/A   Mostly Cloudy
6:00 PM 84.2 °F 90.9 °F 73.4 °F 70% 29.80 in 6.2 mi ENE 2.3 mph - N/A   Mostly Cloudy
6:30 PM 84.2 °F 90.9 °F 73.4 °F 70% 29.80 in 6.2 mi NNE 2.3 mph - N/A   Mostly Cloudy
7:00 PM 84.2 °F 90.9 °F 73.4 °F 70% 29.83 in 5.6 mi North 3.5 mph - N/A   Mostly Cloudy
7:30 PM 84.2 °F 92.3 °F 75.2 °F 74% 29.83 in 5.6 mi NNW 2.3 mph - N/A   Mostly Cloudy
8:00 PM 80.6 °F 84.6 °F 71.6 °F 74% 29.86 in 5.6 mi NNW 11.5 mph - N/A   Mostly Cloudy
8:30 PM 80.6 °F 84.6 °F 71.6 °F 74% 29.86 in 5.6 mi North 5.8 mph - N/A   Mostly Cloudy
9:00 PM 78.8 °F - 71.6 °F 78% 29.89 in 5.6 mi North 3.5 mph - N/A   Mostly Cloudy
9:30 PM 80.6 °F 84.6 °F 71.6 °F 74% 29.89 in 5.6 mi NNE 2.3 mph - N/A   Mostly Cloudy
10:00 PM 80.6 °F 85.4 °F 73.4 °F 79% 29.89 in 5.6 mi NNE 2.3 mph - N/A   Mostly Cloudy
10:30 PM 80.6 °F 85.4 °F 73.4 °F 79% 29.89 in 5.6 mi NW 3.5 mph - N/A   Mostly Cloudy
11:00 PM 80.6 °F 85.4 °F 73.4 °F 79% 29.89 in 5.6 mi WNW 3.5 mph - N/A   Mostly Cloudy